Probability
0 0 0 0 0 0 0 0 0 0 0 0 0 0 0 0 0 0 0 0 0 0 0 0 0 0 0 0 0 0 0 0 0 0 0 0 0 0 0 0 0 0 0 0 0 0 0 0 0
0 0 0 0 0 0 0 0 0 0 0 0 0 0 0 0 0 0 0 0 0 0 0 0 0 0 0 0 0 0 0 0 0 0 0 0 0 0 0 0 0 0 0 0 0 0 0 0 0
0 0 0 0 0 0 0 0 0 0 0 0 0 0 0 0 0 0 0 0 0 0 0 0 0 0 0 0 0 0 0 0 0 0 0 0 0 0 0 0 0 0 0 0 0 0 0 0 0
0 0 0 0 0 0 0 0 0 0 0 0 0 0 0 0 0 0 0 0 0 0 0 0 0 0 0 0 0 0 0 0 0 0 0 0 0 0 0 0 0 0 0 0 0 0 0 0 0
0 0 0 0 0 0 0 0 0 0 0 0 0 0 0 0 0 0 0 0 0 0 0 0 0 0 0 0 0 0 0 0 0 0 0 0 0 0 0 0 0 0 0 0 0 0 0 0 0
0 0 0 0 0 0 0 0 0 0 0 0 0 0 0 0 0 0 0 0 0 0 0 0 0 0 0 0 0 0 0 0 0 0 0 0 0 0 0 0 0 0 0 0 0 0 0 0 0
0 0 0 0 0 0 0 0 0 0 0 0 0 0 0 0 0 0 0 0 0 0 0 0 0 0 0 0 0 0 0 0 0 0 0 0 0 0 0 0 0 0 0 0 0 0 0 0 0
0 0 0 0 0 0 0 0 0 0 0 0 0 0 0 0 0 0 0 0 0 0 0 0 0 0 0 0 0 0 0 0 0 0 0 0 0 0 0 0 0 0 0 0 0 0 0 0 0
0 0 0 0 0 0 0 0 0 0 0 0 0 0 0 0 0 0 0 0 0 0 0 0 0 0 0 0 0 0 0 0 0 0 0 0 0 0 0 0 0 0 0 0 0 0 0 0 0
0 0 0 0 0 0 0 0 0 0 0 0 0 0 0 0 0 0 0 0 0 0 0 0 0 0 0 0 0 0 0 0 0 0 0 0 0 0 0 0 0 0 0 0 0 0 0 0 0
0 0 0 0 0 0 0 0 0 0 0 0 0 0 0 0 0 0 0 0 0 0 0 0 0 0 0 0 0 0 0 0 0 0 0 0 0 0 0 0 0 0 0 0 0 0 0 0 0
0 0 0 0 0 0 0 0 0 0 0 0 0 0 0 0 0 0 0 0 0 0 0 0 0 0 0 0 0 0 0 0 0 0 0 0 0 0 0 0 0 0 0 0 0 0 0 0 0
0 0 0 0 0 0 0 0 0 0 0 0 0 0 0 0 0 0 0 0 0 0 0 0 0 0 0 0 0 0 0 0 0 0 0 0 0 0 0 0 0 0 0 0 0 0 0 0 0
0 0 0 0 0 0 0 0 0 0 0 0 0 0 0 0 0 0 0 0 0 0 0 0 0 0 0 0 0 0 0 0 0 0 0 0 0 0 0 0 0 0 0 0 0 0 0 0 0
0 0 0 0 0 0 0 0 0 0 0 0 0 0 0 0 0 0 0 0 0 0 1 1 1 0 0 0 0 0 0 0 0 0 0 0 0 0 0 0 0 0 0 0 0 0 0 0 0
0 0 0 0 0 0 0 0 0 0 0 0 0 0 0 0 0 0 0 0 0 0 1 2 2 1 0 0 0 0 0 0 0 0 0 0 0 0 0 0 0 0 0 0 0 0 0 0 0
0 0 0 0 0 0 0 0 0 0 0 0 0 0 0 0 0 0 0 0 0 0 1 3 3 1 0 0 0 0 0 0 0 0 0 0 0 0 0 0 0 0 0 0 0 0 0 0 0
0 0 0 0 0 0 0 0 0 0 0 0 0 0 0 0 0 0 0 0 0 0 1 3 4 3 1 0 0 0 0 0 0 0 0 0 0 0 0 0 0 0 0 0 0 0 0 0 0
0 0 0 0 0 0 0 0 0 0 0 0 0 0 0 0 0 0 0 0 0 1 3 6 9 9 6 2 0 0 0 0 0 0 0 0 0 0 0 0 0 0 0 0 0 0 0 0 0
0 0 0 0 0 0 0 0 0 0 0 0 0 0 0 0 0 0 0 0 2 5 11 18 23 24 17 7 2 0 0 0 0 0 0 0 0 0 0 0 0 0 0 0 0 0 0 0 0
0 0 0 0 0 0 0 0 0 0 0 0 0 0 0 1 1 2 2 3 6 11 23 40 49 44 32 16 5 1 0 0 0 0 0 0 0 0 0 0 0 0 0 0 0 0 0 0 0
0 0 0 0 0 0 0 0 0 0 0 0 0 0 0 2 3 4 7 11 16 23 39 61 70 60 43 25 11 3 1 0 0 0 0 0 0 0 0 0 0 0 0 0 0 0 0 0 0
0 0 0 0 0 0 0 0 0 0 0 0 0 0 0 2 5 8 14 22 31 40 55 68 71 60 44 26 12 4 1 0 0 0 0 0 0 0 0 0 0 0 0 0 0 0 0 0 0
0 0 0 0 0 0 0 0 0 0 0 0 0 0 0 1 4 9 17 27 37 46 54 57 54 45 33 20 8 3 1 0 0 0 0 0 0 0 0 0 0 0 0 0 0 0 0 0 0
0 0 0 0 0 0 0 0 0 0 0 0 0 0 0 0 2 8 14 20 27 33 37 37 33 26 18 10 4 1 1 0 0 0 0 0 0 0 0 0 0 0 0 0 0 0 0 0 0
0 0 0 0 0 0 0 0 0 0 0 0 0 0 0 0 1 4 8 11 14 17 20 21 17 12 7 3 1 0 0 0 0 0 0 0 0 0 0 0 0 0 0 0 0 0 0 0 0
0 0 0 0 0 0 0 0 0 0 0 0 0 0 0 0 0 2 4 6 8 8 10 11 9 5 2 0 0 0 0 0 0 0 0 0 0 0 0 0 0 0 0 0 0 0 0 0 0
0 0 0 0 0 0 0 0 0 0 0 0 0 0 0 0 0 0 1 2 3 3 4 5 4 2 1 0 0 0 0 0 0 0 0 0 0 0 0 0 0 0 0 0 0 0 0 0 0
0 0 0 0 0 0 0 0 0 0 0 0 0 0 0 0 0 0 0 0 1 1 1 1 1 1 0 0 0 0 0 0 0 0 0 0 0 0 0 0 0 0 0 0 0 0 0 0 0
0 0 0 0 0 0 0 0 0 0 0 0 0 0 0 0 0 0 0 0 0 0 0 0 0 0 0 0 0 0 0 0 0 0 0 0 0 0 0 0 0 0 0 0 0 0 0 0 0
Wind_Speed
5 2 3 4 7 6 2 2 2 1 3 2 3 6 6 3 1 1 2 9 10 11 8 11 13 12 11 11 11 12 12 12 13 13 13 13 12 11 10 10 10 9 9 8 8 8 8 8 7
2 1 4 6 6 3 3 2 2 1 4 4 4 4 4 3 2 5 4 6 11 12 8 9 14 13 12 11 11 12 12 12 13 13 13 12 11 10 10 10 9 9 9 8 8 8 8 8 7
0 2 4 5 4 3 2 1 1 2 3 2 4 4 3 3 4 5 5 10 11 10 7 9 14 13 12 11 11 12 12 13 13 13 12 11 11 10 9 9 9 9 8 8 8 7 7 7 7
3 4 5 5 2 2 3 1 2 4 2 4 4 4 3 2 6 5 10 12 11 9 7 9 14 13 12 11 11 12 12 13 13 12 12 11 10 9 8 8 8 8 8 8 7 7 7 7 7
4 4 5 4 3 4 3 2 4 4 2 2 3 3 2 3 6 11 12 12 11 8 7 8 14 13 12 12 12 12 12 12 12 12 12 11 10 9 8 7 7 7 6 6 6 7 7 7 7
5 4 5 2 5 6 3 0 4 3 3 3 4 3 1 2 7 10 10 9 9 9 8 7 14 13 13 12 12 12 12 12 12 12 11 11 10 9 8 7 6 6 5 5 5 6 7 7 7
4 4 4 1 3 4 3 2 3 4 4 4 6 5 1 2 5 9 8 7 7 7 7 6 6 9 12 13 12 12 12 12 11 11 11 11 10 9 8 7 5 5 4 3 3 4 6 6 6
4 5 3 1 1 3 4 3 2 4 3 4 5 7 5 6 7 7 6 6 6 6 6 6 5 5 6 7 12 12 12 12 11 11 11 11 10 9 8 6 5 4 3 3 3 4 5 6 6
4 5 1 2 1 3 3 3 1 2 5 3 3 6 5 10 10 8 5 4 5 6 5 5 5 5 5 5 8 10 11 11 10 9 11 8 4 4 4 5 5 4 3 3 3 4 5 7 6
4 3 4 3 3 3 3 2 1 3 3 1 2 3 8 12 12 10 8 8 9 8 7 5 6 6 5 6 4 4 4 5 5 4 5 4 3 3 3 4 6 5 3 2 2 4 6 5 3
2 4 3 3 3 2 3 3 1 6 4 6 7 9 12 12 12 12 11 9 9 8 8 7 6 6 6 4 4 3 3 3 4 5 5 4 3 2 2 1 1 1 2 3 4 4 3 3 2
0 2 2 3 2 2 2 3 1 3 5 6 9 14 15 15 15 14 13 10 7 7 8 8 8 6 6 4 4 4 3 3 3 4 5 4 3 2 2 1 1 1 1 1 1 1 1 2 2
0 1 2 3 3 3 3 4 2 2 6 2 8 12 16 16 15 13 10 9 8 9 9 9 9 8 6 5 4 5 4 4 4 4 4 5 3 3 3 2 2 2 1 1 0 1 0 2 3
1 2 2 3 3 3 3 4 1 3 5 2 9 12 13 14 13 10 9 10 10 10 10 9 10 9 8 6 5 5 5 5 4 4 5 5 4 3 3 3 2 2 2 2 1 1 1 2 3
1 1 2 2 3 2 3 4 0 3 4 1 5 8 10 10 10 11 11 11 11 11 10 11 11 10 10 8 7 5 5 5 5 4 5 5 4 4 4 3 3 3 3 2 1 2 2 3 3
2 2 1 2 3 3 1 5 2 2 3 2 3 5 7 9 11 11 11 10 9 9 10 11 11 11 11 9 7 5 5 5 5 4 5 6 6 5 4 3 3 3 3 2 2 2 2 2 3
4 2 2 4 1 3 2 5 5 2 3 4 4 5 6 8 10 11 12 12 11 11 11 12 11 12 12 9 7 5 5 5 5 5 5 6 7 6 5 4 3 3 3 3 3 2 2 2 3
2 2 2 4 3 1 2 6 9 5 4 5 6 6 6 8 12 12 12 13 12 12 12 12 11 10 10 7 5 3 3 4 4 4 5 6 6 7 6 4 4 3 2 2 3 3 2 2 3
2 3 5 6 2 1 4 7 9 7 6 7 7 7 8 9 10 9 11 12 12 13 13 13 12 10 9 6 5 4 4 3 3 4 5 6 6 7 6 5 4 4 3 3 4 3 3 2 2
2 2 5 5 1 2 3 6 5 5 6 8 9 10 10 11 10 9 9 11 15 16 16 14 13 11 10 7 5 3 3 2 2 2 4 5 6 6 7 6 5 5 4 4 4 3 3 2 3
2 3 4 5 2 1 3 5 3 5 5 9 12 11 11 12 12 10 8 9 11 13 14 11 11 10 8 7 4 3 3 2 2 2 3 4 5 5 5 6 6 5 6 5 6 6 6 4 2
5 4 4 3 1 3 1 4 4 6 7 13 16 15 15 16 14 9 6 6 7 8 7 8 9 9 8 8 5 4 4 3 4 3 2 3 4 4 4 5 5 6 5 6 7 6 5 5 4
3 4 2 1 2 1 1 3 5 6 9 14 15 16 16 16 15 10 5 2 1 5 7 9 11 10 9 6 3 2 2 2 2 2 3 3 3 4 4 5 5 5 5 6 6 6 7 5 5
4 4 3 4 3 2 3 3 3 5 9 14 15 16 16 16 15 11 8 7 7 8 9 10 11 10 9 6 2 3 3 3 4 3 3 2 2 2 3 4 4 4 4 5 6 6 8 7 6
7 5 5 5 2 4 1 2 1 5 8 10 14 15 15 14 13 12 9 7 7 8 9 9 11 10 7 5 3 4 5 5 4 4 4 3 2 2 2 3 3 3 4 4 4 5 6 7 7
5 1 2 4 4 3 2 1 2 4 8 9 10 11 12 13 12 11 9 7 7 8 8 7 8 8 5 3 3 3 4 3 2 3 3 3 3 2 2 3 3 3 3 3 4 3 4 5 7
5 4 2 2 2 2 2 1 2 10 14 15 14 13 13 12 12 11 9 8 7 7 8 7 6 5 3 3 3 3 3 3 3 3 2 2 2 2 3 3 3 2 2 2 3 2 3 4 5
3 2 4 2 1 2 1 3 7 16 18 18 16 14 12 11 10 10 8 8 7 6 7 7 4 1 2 3 3 2 3 3 3 3 3 3 3 3 3 3 3 2 2 2 2 1 2 3 3
7 5 3 2 1 1 0 2 7 12 14 15 15 13 11 10 9 8 7 6 6 5 5 4 1 0 2 3 3 3 3 3 3 3 3 3 3 4 4 4 3 3 3 3 2 2 2 2 2
3 4 3 2 2 1 1 2 7 11 12 13 14 13 12 10 8 6 5 6 6 5 3 2 2 2 2 3 3 3 3 3 3 2 2 3 3 3 3 3 3 3 3 3 3 2 2 2 2
Wind_Direction
340 45 89 57 50 48 32 319 283 319 45 35 66 87 98 94 135 161 116 141 136 146 159 157 156 153 149 146 144 144 143 140 136 132 129 126 123 120 119 118 115 113 113 113 114 115 114 111 106
327 88 57 57 76 63 311 295 272 241 127 135 79 79 82 75 81 109 128 147 144 150 154 155 158 155 152 150 148 146 145 143 140 136 133 130 128 125 123 121 119 116 115 114 113 113 113 110 103
332 71 73 67 89 156 238 252 237 77 117 96 72 58 87 120 135 151 152 142 144 150 149 161 160 158 156 154 151 149 148 146 143 140 138 136 132 128 124 123 121 117 114 108 105 105 106 104 99
91 53 56 68 50 240 250 259 162 121 85 59 93 71 60 100 152 151 138 143 147 149 150 167 164 162 161 158 155 152 151 149 147 145 142 138 135 131 128 127 126 122 115 107 99 95 94 91 83
62 76 59 44 343 304 281 237 158 138 124 83 101 99 51 19 116 131 142 149 151 151 156 173 168 167 166 162 158 155 154 153 152 150 147 144 141 138 136 135 134 130 122 110 97 88 83 76 64
57 66 75 25 320 315 313 321 143 128 124 120 114 104 54 115 128 143 148 151 155 157 159 170 173 172 171 167 164 161 158 157 157 156 154 150 148 145 145 146 144 141 134 118 97 79 71 63 53
95 85 110 125 325 329 349 16 150 144 146 164 137 112 112 168 156 146 145 141 148 158 160 166 169 172 174 173 170 166 164 163 162 160 158 156 153 151 153 155 156 153 146 130 100 75 63 54 46
113 97 91 84 349 298 321 339 182 153 158 130 127 144 186 194 154 134 127 134 149 160 165 164 163 163 164 170 175 172 170 168 166 165 163 162 159 157 159 160 166 162 156 136 98 72 60 54 47
85 77 121 204 207 275 319 354 359 119 119 127 159 175 190 147 140 131 128 143 164 175 173 166 165 161 156 163 179 174 172 172 169 168 170 161 141 140 148 163 175 172 160 130 91 69 64 61 41
80 118 211 212 193 244 297 268 218 116 125 137 93 106 129 143 156 164 173 179 185 187 183 173 170 163 159 171 162 155 158 159 152 149 149 131 132 144 150 186 183 179 161 115 76 57 62 63 39
119 174 222 238 212 239 290 297 178 138 189 211 193 165 150 161 173 185 191 190 194 188 185 180 175 167 165 161 149 147 142 142 143 147 143 139 137 141 135 122 157 78 87 57 38 45 54 61 57
110 247 233 270 222 226 259 309 11 171 235 247 197 165 163 174 186 194 197 197 188 179 187 181 178 171 173 163 159 156 152 153 156 158 154 149 152 161 155 153 137 92 74 64 33 39 69 99 91
357 282 272 290 291 271 290 280 276 265 300 268 152 163 175 186 194 200 201 197 189 191 190 182 177 175 172 167 169 169 167 167 165 163 166 166 169 178 173 166 162 153 137 138 346 344 113 142 135
264 284 309 334 339 339 304 289 275 310 332 130 160 180 189 195 198 199 202 201 198 198 194 184 180 178 173 176 178 177 175 169 166 172 177 179 181 183 179 179 181 182 177 184 192 173 153 151 141
279 339 10 13 357 335 324 313 338 327 341 172 194 199 200 206 203 207 209 210 205 200 194 188 185 179 179 182 186 183 179 170 176 180 182 186 191 194 187 188 197 191 173 172 147 113 109 123 126
36 49 328 315 0 340 18 282 274 335 11 303 255 231 221 220 217 215 213 215 208 198 195 195 192 184 186 187 186 182 177 176 181 180 182 191 197 198 193 201 212 181 158 156 144 126 108 118 130
30 20 309 309 355 11 32 276 287 323 344 303 287 266 248 243 239 229 219 215 209 200 196 195 195 186 188 186 183 184 178 184 182 179 185 196 200 198 196 210 216 171 156 161 162 142 138 147 147
275 276 278 279 294 7 293 275 294 320 325 303 298 292 273 257 248 239 229 220 211 203 197 195 196 188 181 172 164 168 185 193 185 184 190 193 200 199 197 207 215 179 167 174 165 151 139 140 145
209 225 259 262 266 263 267 279 295 328 351 340 331 315 298 280 268 255 239 225 213 205 200 195 192 184 170 165 169 174 195 194 196 197 190 190 195 196 195 202 199 187 191 193 172 144 148 136 130
199 252 268 283 309 249 287 286 307 4 19 5 351 336 320 310 298 276 251 228 214 208 203 196 191 182 177 178 165 153 150 173 185 186 188 187 186 188 195 192 191 186 187 188 178 158 151 158 160
265 232 256 270 330 17 329 312 352 351 9 9 5 351 341 329 312 293 269 238 220 212 203 191 182 171 163 146 123 100 92 88 127 184 195 193 186 187 190 190 186 185 184 191 187 178 172 172 190
285 286 260 259 285 288 17 292 313 333 344 0 357 352 346 338 326 306 283 251 215 201 178 158 143 134 128 125 139 167 175 187 197 185 182 176 182 186 191 189 188 187 188 191 191 183 177 165 178
293 332 346 291 193 281 303 224 302 347 354 348 347 347 345 343 338 334 334 319 136 129 119 115 111 110 108 107 143 193 192 177 146 145 155 162 175 188 191 191 190 193 195 198 190 181 183 182 180
342 9 22 40 86 250 241 186 321 5 343 333 338 342 345 348 350 358 18 39 66 87 98 105 105 102 99 103 140 205 195 179 163 158 156 156 166 182 190 188 192 198 198 199 195 190 191 193 189
23 33 1 344 357 245 271 140 79 359 348 333 330 335 342 349 354 1 16 38 55 73 86 96 104 101 105 127 182 202 197 188 180 172 167 161 167 187 193 178 188 197 204 199 188 190 199 195 196
340 60 201 248 242 284 346 154 142 10 342 332 329 332 342 353 358 4 12 37 59 67 76 84 97 109 124 152 199 203 188 180 177 170 166 172 180 187 176 172 184 196 195 188 181 189 201 199 205
358 347 273 222 256 266 296 40 353 351 351 351 347 344 348 353 357 5 15 33 58 68 72 74 82 102 139 177 186 186 177 173 178 174 166 167 170 168 159 159 162 166 165 168 166 186 200 197 207
41 344 15 14 242 243 288 49 359 345 345 345 344 341 342 348 353 5 19 26 42 51 61 62 65 129 178 175 168 173 174 182 179 163 162 161 160 150 145 144 144 141 140 144 150 174 198 202 212
358 10 4 315 262 224 151 60 13 345 340 343 342 340 343 347 349 2 14 19 30 36 43 47 10 215 172 163 161 157 159 166 160 155 160 159 157 159 162 161 155 156 157 156 156 174 177 199 221
31 357 332 310 319 345 122 70 6 348 348 354 350 351 354 358 1 6 17 20 15 11 2 334 284 236 197 168 155 153 137 125 119 127 143 145 156 169 172 166 168 174 174 174 177 187 185 193 217